sat.trackr.live / text

‹ back to catalog

STARLINK-33565

NORAD 62288 · 2024-237X

PAYLOAD ACTIVE UNKNOWN

§ Identity

Operator
Country
US
Launch date
2024-12-08
Launch site
AFETR
Launch vehicle
Mass (kg)
RCS (m²)

Purposes: comms

External: N2YO · Heavens-Above · Gunter

§ Orbital elements

Epoch: 2026-05-25T00:03:58.871808Z

Period
94.27 min
Inclination
42.9955°
Eccentricity
0.0000513
Mean motion
15.27596105 rev/d
Perigee alt
482.6 km
Apogee alt
483.4 km
Semi-major
6,861.1 km
B*
4.6182e-4
RAAN
134.0837°
Arg perigee
147.7558°
Mean anomaly
212.3325°
Rev number
8,299

§ Raw data

STARLINK-335651 62288U 24237X   26145.00276472  .00012474  00000+0  46182-3 0  99912 62288  42.9955 134.0837 0000513 147.7558 212.3325 15.27596105 82991

JSON: /api/v1/satellites/62288 · /tle

For live sub-satellite position, see the globe view (requires WebGL).

§ Visibility from observer

Set your observer location to see the next 7 days of passes ≥ 10°. The values pass through the URL so the page stays shareable.

No JS? Fill the form by hand. The geolocation button needs JavaScript.